Location: Newark
(37.9717°N, 99.9089°W)
Time: 21:32:58
(UTC+00:00)

N. Korean satellite - Pass Details

Date: 26 September 2021
Orbit: 450 x 494 km, 97.3° (Epoch: 28 October)

Event Time Altitude Azimuth Distance (km) Brightness Sun altitude
Rises 10:54:39 0° 34° (NE) 2,539 11.0 -19.7°
Reaches altitude 10° 10:57:37 10° 62° (ENE) 1,665 10.4 -19.1°
Maximum altitude 10:59:27 14° 93° (E) 1,462 10.0 -18.8°
Drops below altitude 10° 11:01:17 10° 124° (SE) 1,670 9.9 -18.4°
Sets 11:04:15 0° 152° (SSE) 2,553 10.4 -17.8°
